COSMOS 2501 (702K)

Last updated on Aug. 10, 2020, 5:34 a.m. UTC

1 40315U 14075A   20222.53599228  .00000025  00000-0  00000+0 0  9997
2 40315  63.8710 264.9382 0017890 209.7412 278.5821  2.13098660 44303
UTC
Height (km)
Latitude
Longitude
Inclination
Orbital Period
UTC large
Height (km)
Speed (km/s)
/
Latitude / Longitude
Inclination (degrees)
Orbital Period (minutes)
Azimuth
Elevation
Range (km)
Doppler Factor
iOS Compass Heading
iOS Angle

Next 30 passes for location: Hong Kong

Rise time Rise Azimuth (degrees) Set time Set Azimuth (degrees) Duration Max altitude (degrees)

No matching passes for this satellites